• In Österreich
  • Länderverzeichnis
  • Für 7 Tage
  • Wassertemperatur
  • Satellitenkarten
  • Wetterkarte
  • News
  • Widgets
  • user-avatar
    Anmelden

    Stündliche Wetter Aschtarak

    Heute, 21 Oktober, Samstag

    Zeit Temperatur Niederschläge Wind Luftdruck Luftfeuchtigkeit
    00:00 +10°C° 0 mm 1 m/S 659 mmHg 47%
    01:00 +10°C° 0 mm 1 m/S 659 mmHg 47%
    02:00 +9°C° 0 mm 1 m/S 658 mmHg 48%
    03:00 +9°C° 0 mm 1 m/S 658 mmHg 45%
    04:00 +9°C° 0 mm 1 m/S 658 mmHg 46%
    05:00 +8°C° 0 mm 1 m/S 658 mmHg 46%
    06:00 +8°C° 0 mm 1 m/S 658 mmHg 46%
    07:00 +10°C° 0 mm 1 m/S 658 mmHg 42%
    08:00 +12°C° 0 mm 1 m/S 659 mmHg 37%
    09:00 +15°C° 0 mm 1 m/S 659 mmHg 33%
    10:00 +16°C° 0 mm 1 m/S 659 mmHg 30%
    11:00 +18°C° 0 mm 1 m/S 659 mmHg 28%
    12:00 +19°C° 0 mm 1 m/S 659 mmHg 26%
    13:00 +18°C° 0 mm 2 m/S 658 mmHg 26%
    14:00 +18°C° 0 mm 2 m/S 658 mmHg 25%
    15:00 +18°C° 0 mm 2 m/S 658 mmHg 25%
    16:00 +16°C° 0 mm 1 m/S 657 mmHg 29%
    17:00 +14°C° 0 mm 1 m/S 657 mmHg 33%
    18:00 +12°C° 0 mm 1 m/S 656 mmHg 37%
    19:00 +12°C° 0 mm 1 m/S 656 mmHg 38%
    20:00 +12°C° 0 mm 1 m/S 656 mmHg 38%
    21:00 +11°C° 0 mm 1 m/S 656 mmHg 39%
    22:00 +11°C° 0 mm 1 m/S 656 mmHg 39%
    23:00 +10°C° 0 mm 1 m/S 656 mmHg 39%

    Morgen, 22 Oktober, Sonntag

    Zeit Temperatur Niederschläge Wind Luftdruck Luftfeuchtigkeit
    00:00 +10°C° 0 mm 1 m/S 656 mmHg 39%
    01:00 +10°C° 0 mm 1 m/S 656 mmHg 38%
    02:00 +9°C° 0 mm 1 m/S 656 mmHg 38%
    03:00 +9°C° 0 mm 1 m/S 656 mmHg 37%
    04:00 +9°C° 0 mm 1 m/S 655 mmHg 38%
    05:00 +8°C° 0 mm 1 m/S 655 mmHg 38%
    06:00 +8°C° 0 mm 1 m/S 655 mmHg 38%
    07:00 +10°C° 0 mm 1 m/S 656 mmHg 35%
    08:00 +12°C° 0 mm 2 m/S 656 mmHg 32%
    09:00 +14°C° 0 mm 2 m/S 657 mmHg 29%
    10:00 +15°C° 0 mm 2 m/S 656 mmHg 28%
    11:00 +16°C° 0 mm 3 m/S 656 mmHg 26%
    12:00 +17°C° 0 mm 3 m/S 656 mmHg 25%
    13:00 +17°C° 0 mm 3 m/S 656 mmHg 25%
    14:00 +17°C° 0 mm 4 m/S 655 mmHg 24%
    15:00 +17°C° 0 mm 4 m/S 655 mmHg 24%
    16:00 +16°C° 0 mm 3 m/S 655 mmHg 27%
    17:00 +14°C° 0 mm 2 m/S 654 mmHg 31%
    18:00 +12°C° 0 mm 2 m/S 654 mmHg 34%
    19:00 +12°C° 0 mm 2 m/S 654 mmHg 35%
    20:00 +11°C° 0 mm 1 m/S 654 mmHg 36%
    21:00 +11°C° 0 mm 1 m/S 654 mmHg 37%
    22:00 +10°C° 0 mm 1 m/S 654 mmHg 38%
    23:00 +10°C° 0 mm 1 m/S 655 mmHg 39%

    übermorgen, 23 Oktober, Montag

    Zeit Temperatur Niederschläge Wind Luftdruck Luftfeuchtigkeit
    00:00 +10°C° 0 mm 1 m/S 655 mmHg 40%
    01:00 +9°C° 0 mm 1 m/S 655 mmHg 42%
    02:00 +9°C° 0 mm 1 m/S 655 mmHg 44%
    03:00 +9°C° 0 mm 1 m/S 655 mmHg 46%
    04:00 +8°C° 0 mm 1 m/S 655 mmHg 47%
    05:00 +8°C° 0 mm 1 m/S 655 mmHg 49%
    06:00 +8°C° 0 mm 1 m/S 655 mmHg 50%
    07:00 +9°C° 0 mm 2 m/S 656 mmHg 46%
    08:00 +12°C° 0 mm 2 m/S 656 mmHg 41%
    09:00 +14°C° 0 mm 2 m/S 657 mmHg 37%
    10:00 +15°C° 0 mm 2 m/S 657 mmHg 35%
    11:00 +16°C° 0 mm 2 m/S 657 mmHg 32%
    12:00 +17°C° 0 mm 3 m/S 657 mmHg 30%
    13:00 +17°C° 0 mm 3 m/S 657 mmHg 29%
    14:00 +17°C° 0 mm 3 m/S 657 mmHg 28%
    15:00 +17°C° 0 mm 3 m/S 657 mmHg 27%
    16:00 +16°C° 0 mm 3 m/S 656 mmHg 31%
    17:00 +14°C° 0 mm 2 m/S 656 mmHg 34%
    18:00 +12°C° 0 mm 2 m/S 656 mmHg 38%
    19:00 +12°C° 0 mm 2 m/S 656 mmHg 38%
    20:00 +11°C° 0 mm 1 m/S 656 mmHg 38%
    21:00 +11°C° 0 mm 1 m/S 657 mmHg 38%
    22:00 +11°C° 0 mm 1 m/S 657 mmHg 39%
    23:00 +10°C° 0 mm 1 m/S 657 mmHg 39%

    24 Oktober, Dienstag

    Zeit Temperatur Niederschläge Wind Luftdruck Luftfeuchtigkeit
    00:00 +10°C° 0 mm 1 m/S 657 mmHg 40%
    01:00 +10°C° 0 mm 1 m/S 657 mmHg 41%
    02:00 +10°C° 0 mm 1 m/S 657 mmHg 41%
    03:00 +9°C° 0 mm 1 m/S 657 mmHg 42%
    04:00 +9°C° 0 mm 1 m/S 657 mmHg 42%
    05:00 +9°C° 0 mm 1 m/S 657 mmHg 42%
    06:00 +9°C° 0 mm 1 m/S 657 mmHg 42%
    07:00 +10°C° 0 mm 2 m/S 657 mmHg 38%
    08:00 +13°C° 0 mm 2 m/S 658 mmHg 35%
    09:00 +15°C° 0 mm 2 m/S 659 mmHg 31%
    10:00 +16°C° 0 mm 3 m/S 659 mmHg 29%
    11:00 +17°C° 0 mm 3 m/S 659 mmHg 28%
    12:00 +18°C° 0 mm 4 m/S 659 mmHg 26%
    13:00 +18°C° 0 mm 4 m/S 658 mmHg 26%
    14:00 +18°C° 0 mm 4 m/S 658 mmHg 26%
    15:00 +18°C° 0 mm 4 m/S 658 mmHg 26%
    16:00 +17°C° 0 mm 3 m/S 658 mmHg 30%
    17:00 +14°C° 0 mm 3 m/S 658 mmHg 34%
    18:00 +13°C° 0 mm 2 m/S 658 mmHg 37%
    19:00 +13°C° 0 mm 2 m/S 658 mmHg 37%
    20:00 +12°C° 0 mm 2 m/S 658 mmHg 37%
    21:00 +12°C° 0 mm 2 m/S 659 mmHg 36%
    22:00 +12°C° 0 mm 2 m/S 659 mmHg 37%
    23:00 +12°C° 0 mm 2 m/S 659 mmHg 37%

    25 Oktober, Mittwoch

    Zeit Temperatur Niederschläge Wind Luftdruck Luftfeuchtigkeit
    00:00 +12°C° 0 mm 2 m/S 659 mmHg 38%
    01:00 +10°C° 0 mm 2 m/S 659 mmHg 40%
    02:00 +10°C° 0 mm 2 m/S 659 mmHg 42%
    03:00 +10°C° 0 mm 2 m/S 659 mmHg 44%
    04:00 +10°C° 0 mm 2 m/S 659 mmHg 45%
    05:00 +10°C° 0 mm 2 m/S 660 mmHg 45%
    06:00 +9°C° 0 mm 2 m/S 660 mmHg 46%
    07:00 +12°C° 0 mm 2 m/S 660 mmHg 42%
    08:00 +14°C° 0 mm 2 m/S 661 mmHg 38%
    09:00 +16°C° 0 mm 3 m/S 662 mmHg 34%
    10:00 +18°C° 0 mm 3 m/S 661 mmHg 32%
    11:00 +19°C° 0 mm 3 m/S 661 mmHg 30%
    12:00 +20°C° 0 mm 4 m/S 661 mmHg 28%
    13:00 +20°C° 0 mm 4 m/S 661 mmHg 28%
    14:00 +20°C° 0 mm 4 m/S 661 mmHg 28%
    15:00 +20°C° 0 mm 3 m/S 660 mmHg 28%
    16:00 +18°C° 0 mm 3 m/S 660 mmHg 32%
    17:00 +17°C° 0 mm 2 m/S 660 mmHg 35%
    18:00 +15°C° 0 mm 2 m/S 660 mmHg 39%
    19:00 +14°C° 0 mm 2 m/S 660 mmHg 39%
    20:00 +14°C° 0 mm 2 m/S 660 mmHg 40%
    21:00 +14°C° 0 mm 2 m/S 660 mmHg 40%
    22:00 +13°C° 0 mm 2 m/S 660 mmHg 40%
    23:00 +13°C° 0 mm 1 m/S 660 mmHg 41%

    26 Oktober, Donnerstag

    Zeit Temperatur Niederschläge Wind Luftdruck Luftfeuchtigkeit
    00:00 +13°C° 0 mm 1 m/S 660 mmHg 41%
    01:00 +13°C° 0 mm 2 m/S 660 mmHg 41%
    02:00 +13°C° 0 mm 2 m/S 660 mmHg 42%
    03:00 +12°C° 0 mm 2 m/S 660 mmHg 42%
    04:00 +12°C° 0 mm 2 m/S 660 mmHg 43%
    05:00 +12°C° 0 mm 2 m/S 660 mmHg 44%
    06:00 +12°C° 0 mm 2 m/S 660 mmHg 44%
    07:00 +14°C° 0 mm 2 m/S 661 mmHg 41%
    08:00 +16°C° 0 mm 2 m/S 661 mmHg 37%
    09:00 +18°C° 0 mm 2 m/S 662 mmHg 33%
    10:00 +19°C° 0 mm 3 m/S 662 mmHg 31%
    11:00 +20°C° 0 mm 3 m/S 661 mmHg 29%
    12:00 +21°C° 0 mm 4 m/S 661 mmHg 27%
    13:00 +21°C° 0 mm 4 m/S 661 mmHg 27%
    14:00 +21°C° 0 mm 4 m/S 660 mmHg 28%
    15:00 +22°C° 0 mm 4 m/S 660 mmHg 28%
    16:00 +20°C° 0 mm 3 m/S 659 mmHg 32%
    17:00 +18°C° 0 mm 2 m/S 659 mmHg 36%
    18:00 +16°C° 0 mm 2 m/S 659 mmHg 40%
    19:00 +16°C° 0 mm 2 m/S 659 mmHg 39%
    20:00 +15°C° 0 mm 2 m/S 659 mmHg 39%
    21:00 +15°C° 0 mm 2 m/S 659 mmHg 39%
    22:00 +15°C° 0 mm 2 m/S 659 mmHg 39%
    23:00 +14°C° 0 mm 2 m/S 658 mmHg 40%
    Mehr zeigen